Weather History for George, South Africa

Change the Weather History Date:

Friday, August 29, 2014

  Actual Average Record
Temperature  
Mean Temperature 50 °F -  
Max Temperature 57 °F 64 °F 77 °F (2005)
Min Temperature 43 °F 47 °F 42 °F (1996)
Degree Days  
Heating Degree Days 15    
Moisture  
Dew Point 44 °F    
Average Humidity 80    
Maximum Humidity 93    
Minimum Humidity 57    
Precipitation  
Precipitation 0.28 in - - ()
Sea Level Pressure  
Sea Level Pressure 30.39 in    
Wind  
Wind Speed 13 mph ()    
Max Wind Speed 23 mph    
Max Gust Speed -    
Visibility 7.1 miles    
Events Rain    
Averages and records for this station are not official NWS values.
T = Trace of Precipitation, MM = Missing Value Source: Averaged Metar Reports

Daily Weather History Graph

Daily Weather History Graph

Search for Another Location

Airport:

Trip Planner

Search our weather history database for the weather conditions in past years. The results will help you decide how hot, cold, wet, or windy it might be!

Date:

Astronomy

Aug. 29, 2014 Rise Set
Actual Time 6:53 AM SAST 6:10 PM SAST
Civil Twilight 6:27 AM SAST 6:35 PM SAST
Nautical Twilight 5:58 AM SAST 7:04 PM SAST
Astronomical Twilight 5:29 AM SAST 7:33 PM SAST
Moon 8:43 AM SAST (8/29) 9:48 PM SAST (8/29)
Length of Visible Light 12h 07m
Length of Day
11h 17m
Waxing Crescent, 13% of the Moon is Illuminated
Aug 29
Waxing Crescent
Sep 2
First Quarter
Sep 9
Full
Sep 16
Last Quarter
Sep 24
New

Hourly Weather History & Observations

Time (SAST) Temp. Windchill Dew Point Humidity Pressure Visibility Wind Dir Wind Speed Gust Speed Precip Events Conditions
12:00 AM 44.6 °F 37.2 °F 39.2 °F 81% 30.21 in 6.2 mi NW 17.3 mph - N/A   Mostly Cloudy
1:00 AM 44.6 °F 36.9 °F 41.0 °F 87% 30.21 in 6.2 mi WNW 18.4 mph - N/A   Scattered Clouds
2:00 AM 46 °F - 40 °F 73% 30.26 in - WNW 21.9 mph - -  
2:00 AM 46.4 °F 38.3 °F 41.0 °F 81% 30.24 in 6.2 mi WNW 23.0 mph - N/A   Mostly Cloudy
3:00 AM 46.4 °F 38.7 °F 41.0 °F 81% 30.24 in 6.2 mi WNW 20.7 mph - N/A   Mostly Cloudy
4:00 AM 44.6 °F 37.8 °F 41.0 °F 87% 30.27 in 6.2 mi NW 15.0 mph - N/A   Mostly Cloudy
5:00 AM 45 °F - 41 °F 80% 30.30 in 12 mi NW 17.3 mph - - Rain Light Rain
5:00 AM 44.6 °F 37.2 °F 41.0 °F 87% 30.27 in 6.2 mi NW 17.3 mph - N/A   Mostly Cloudy
6:00 AM 44.6 °F 37.8 °F 41.0 °F 87% 30.30 in 6.2 mi WNW 15.0 mph - N/A   Mostly Cloudy
7:00 AM 44.6 °F 38.8 °F 41.0 °F 87% 30.33 in 6.2 mi NW 11.5 mph - N/A   Scattered Clouds
8:00 AM 47 °F - 42 °F 78% 30.38 in 12 mi NW 13.8 mph - -   Partly Cloudy
8:00 AM 46.4 °F 40.4 °F 42.8 °F 87% 30.36 in 6.2 mi NW 13.8 mph - N/A   Scattered Clouds
9:00 AM 50.0 °F - 44.6 °F 82% 30.39 in 6.2 mi WNW 16.1 mph - N/A   Scattered Clouds
10:00 AM 53.6 °F - 46.4 °F 77% 30.39 in 6.2 mi WNW 16.1 mph - N/A   Scattered Clouds
11:00 AM 52 °F - 46 °F 72% 30.44 in 6 mi West 9.2 mph - - Rain Light Rain
11:00 AM 51.8 °F - 46.4 °F 82% 30.42 in 6.2 mi West 9.2 mph - N/A Rain Light Rain
12:00 PM 53.6 °F - 46.4 °F 77% 30.42 in 6.2 mi West 8.1 mph - N/A Rain Light Rain
1:00 PM 53.6 °F - 46.4 °F 77% 30.42 in 6.2 mi West 4.6 mph - N/A   Mostly Cloudy
2:00 PM 54 °F - 47 °F 72% 30.43 in 12 mi SW 13.8 mph - - Rain Light Rain
2:00 PM 55.4 °F - 48.2 °F 77% 30.42 in 6.2 mi SW 13.8 mph - N/A   Mostly Cloudy
3:00 PM 55.4 °F - 46.4 °F 72% 30.42 in 6.2 mi SW 13.8 mph - N/A   Mostly Cloudy
4:00 PM 55.4 °F - 44.6 °F 67% 30.45 in 6.2 mi WSW 10.4 mph - N/A   Mostly Cloudy
5:00 PM 56 °F - 45 °F 57% 30.46 in 12 mi WSW 9.2 mph - -   Mostly Cloudy
5:00 PM 55.4 °F - 44.6 °F 67% 30.45 in 6.2 mi WSW 9.2 mph - N/A   Mostly Cloudy
6:00 PM 53.6 °F - 46.4 °F 77% 30.48 in 6.2 mi WSW 9.2 mph - N/A   Mostly Cloudy
7:00 PM 51.8 °F - 48.2 °F 88% 30.48 in 5.0 mi WSW 10.4 mph - N/A Rain Light Rain
8:00 PM 50 °F - 47 °F 85% 30.51 in 12 mi NW 6.9 mph - - Rain Light Rain
8:00 PM 50.0 °F - 46.4 °F 87% 30.48 in 6.2 mi NW 6.9 mph - N/A   Mostly Cloudy
9:00 PM 50.0 °F - 46.4 °F 87% 30.51 in 6.2 mi WNW 8.1 mph - N/A   Mostly Cloudy
10:00 PM 48.2 °F - 46.4 °F 93% 30.51 in 6.2 mi NNW 4.6 mph - N/A   Scattered Clouds
11:00 PM 48.2 °F - 46.4 °F 93% 30.51 in 6.2 mi NW 5.8 mph - N/A   Scattered Clouds